Meteo orario Marinka

Oggi, 30 Settembre, Mercoledi

Tempo Temperatura Precipitazioni Vento Pressione Umidità
00:00 +18°C° 0 mm 9 m/s 745 mm Hg 39%
01:00 +17°C° 0 mm 9 m/s 745 mm Hg 40%
02:00 +16°C° 0 mm 9 m/s 745 mm Hg 42%
03:00 +16°C° 0 mm 9 m/s 745 mm Hg 45%
04:00 +15°C° 0 mm 9 m/s 744 mm Hg 49%
05:00 +13°C° 0 mm 10 m/s 744 mm Hg 52%
06:00 +13°C° 0 mm 10 m/s 744 mm Hg 56%
07:00 +13°C° 0 mm 10 m/s 744 mm Hg 55%
08:00 +14°C° 0 mm 10 m/s 744 mm Hg 53%
09:00 +14°C° 0 mm 11 m/s 744 mm Hg 54%
10:00 +16°C° 0 mm 11 m/s 744 mm Hg 50%
11:00 +18°C° 0 mm 10 m/s 744 mm Hg 47%
12:00 +19°C° 0 mm 9 m/s 744 mm Hg 44%
13:00 +21°C° 0.1 mm 9 m/s 743 mm Hg 39%
14:00 +22°C° 0.1 mm 10 m/s 743 mm Hg 34%
15:00 +23°C° 0.1 mm 10 m/s 743 mm Hg 29%
16:00 +22°C° 1.1 mm 8 m/s 743 mm Hg 36%
17:00 +20°C° 1.1 mm 7 m/s 743 mm Hg 42%
18:00 +19°C° 1.1 mm 5 m/s 743 mm Hg 49%
19:00 +18°C° 0.2 mm 7 m/s 743 mm Hg 48%
20:00 +18°C° 0.2 mm 9 m/s 744 mm Hg 48%
21:00 +17°C° 0.2 mm 10 m/s 744 mm Hg 48%
22:00 +17°C° 0 mm 10 m/s 744 mm Hg 45%
23:00 +17°C° 0 mm 9 m/s 744 mm Hg 42%

Domani, 1 Ottobre, Giovedi

Tempo Temperatura Precipitazioni Vento Pressione Umidità
00:00 +17°C° 0 mm 9 m/s 745 mm Hg 39%
01:00 +16°C° 0 mm 9 m/s 745 mm Hg 41%
02:00 +15°C° 0 mm 8 m/s 745 mm Hg 43%
03:00 +15°C° 0 mm 8 m/s 745 mm Hg 45%
04:00 +13°C° 0 mm 8 m/s 745 mm Hg 48%
05:00 +14°C° 0 mm 7 m/s 745 mm Hg 50%
06:00 +12°C° 0 mm 7 m/s 745 mm Hg 53%
07:00 +13°C° 0 mm 8 m/s 746 mm Hg 52%
08:00 +15°C° 0 mm 8 m/s 746 mm Hg 50%
09:00 +16°C° 0 mm 8 m/s 746 mm Hg 49%
10:00 +17°C° 0 mm 8 m/s 746 mm Hg 46%
11:00 +20°C° 0 mm 8 m/s 746 mm Hg 43%
12:00 +21°C° 0 mm 8 m/s 746 mm Hg 40%
13:00 +20°C° 0.9 mm 7 m/s 746 mm Hg 48%
14:00 +17°C° 0.9 mm 5 m/s 746 mm Hg 56%
15:00 +17°C° 0.9 mm 3 m/s 746 mm Hg 65%
16:00 +17°C° 0.5 mm 3 m/s 746 mm Hg 66%
17:00 +17°C° 0.5 mm 3 m/s 746 mm Hg 67%
18:00 +16°C° 0.5 mm 2 m/s 746 mm Hg 68%
19:00 +17°C° 0.4 mm 2 m/s 746 mm Hg 66%
20:00 +17°C° 0.4 mm 2 m/s 746 mm Hg 64%
21:00 +17°C° 0.4 mm 3 m/s 746 mm Hg 63%
22:00 +17°C° 0 mm 4 m/s 746 mm Hg 58%
23:00 +16°C° 0 mm 5 m/s 746 mm Hg 52%

Dopodomani, 2 Ottobre, Venerdi

Tempo Temperatura Precipitazioni Vento Pressione Umidità
00:00 +17°C° 0 mm 6 m/s 746 mm Hg 47%
01:00 +16°C° 0 mm 6 m/s 746 mm Hg 48%
02:00 +16°C° 0 mm 6 m/s 746 mm Hg 50%
03:00 +15°C° 0 mm 7 m/s 747 mm Hg 51%
04:00 +15°C° 0 mm 6 m/s 747 mm Hg 53%
05:00 +14°C° 0 mm 6 m/s 747 mm Hg 56%
06:00 +14°C° 0 mm 5 m/s 747 mm Hg 58%
07:00 +14°C° 0 mm 6 m/s 748 mm Hg 57%
08:00 +15°C° 0 mm 6 m/s 748 mm Hg 55%
09:00 +16°C° 0 mm 6 m/s 748 mm Hg 54%
10:00 +17°C° 0 mm 6 m/s 748 mm Hg 51%
11:00 +19°C° 0 mm 5 m/s 748 mm Hg 47%
12:00 +21°C° 0 mm 5 m/s 749 mm Hg 44%
13:00 +21°C° 0 mm 5 m/s 749 mm Hg 43%
14:00 +22°C° 0 mm 4 m/s 749 mm Hg 42%
15:00 +23°C° 0 mm 4 m/s 749 mm Hg 40%
16:00 +22°C° 0 mm 4 m/s 749 mm Hg 43%
17:00 +21°C° 0 mm 3 m/s 749 mm Hg 46%
18:00 +20°C° 0 mm 3 m/s 749 mm Hg 48%
19:00 +19°C° 0 mm 3 m/s 749 mm Hg 51%
20:00 +18°C° 0 mm 3 m/s 750 mm Hg 53%
21:00 +17°C° 0 mm 3 m/s 750 mm Hg 56%
22:00 +17°C° 0 mm 3 m/s 750 mm Hg 59%
23:00 +16°C° 0 mm 3 m/s 750 mm Hg 62%

3 Ottobre, Sabato

Tempo Temperatura Precipitazioni Vento Pressione Umidità
00:00 +16°C° 0 mm 3 m/s 750 mm Hg 65%
01:00 +14°C° 0 mm 3 m/s 750 mm Hg 64%
02:00 +14°C° 0 mm 3 m/s 751 mm Hg 63%
03:00 +14°C° 0 mm 4 m/s 751 mm Hg 62%
04:00 +13°C° 0 mm 4 m/s 751 mm Hg 68%
05:00 +13°C° 0 mm 4 m/s 751 mm Hg 73%
06:00 +13°C° 0 mm 4 m/s 751 mm Hg 79%
07:00 +13°C° 0 mm 4 m/s 751 mm Hg 77%
08:00 +14°C° 0 mm 5 m/s 752 mm Hg 74%
09:00 +15°C° 0 mm 5 m/s 752 mm Hg 72%
10:00 +17°C° 0 mm 5 m/s 752 mm Hg 66%
11:00 +19°C° 0 mm 5 m/s 752 mm Hg 59%
12:00 +21°C° 0 mm 4 m/s 752 mm Hg 53%
13:00 +21°C° 0 mm 4 m/s 752 mm Hg 50%
14:00 +22°C° 0 mm 4 m/s 752 mm Hg 47%
15:00 +22°C° 0 mm 3 m/s 752 mm Hg 45%
16:00 +22°C° 0 mm 3 m/s 752 mm Hg 47%
17:00 +21°C° 0 mm 2 m/s 751 mm Hg 49%
18:00 +20°C° 0 mm 2 m/s 751 mm Hg 51%
19:00 +19°C° 0 mm 2 m/s 752 mm Hg 52%
20:00 +18°C° 0 mm 2 m/s 752 mm Hg 53%
21:00 +18°C° 0 mm 2 m/s 752 mm Hg 55%
22:00 +17°C° 0 mm 2 m/s 752 mm Hg 56%
23:00 +17°C° 0 mm 3 m/s 752 mm Hg 57%

4 Ottobre, Domenica

Tempo Temperatura Precipitazioni Vento Pressione Umidità
00:00 +16°C° 0 mm 3 m/s 752 mm Hg 59%
01:00 +16°C° 0 mm 3 m/s 752 mm Hg 61%
02:00 +14°C° 0 mm 3 m/s 752 mm Hg 63%
03:00 +14°C° 0 mm 3 m/s 752 mm Hg 66%
04:00 +14°C° 0 mm 3 m/s 752 mm Hg 65%
05:00 +13°C° 0 mm 3 m/s 752 mm Hg 65%
06:00 +13°C° 0 mm 3 m/s 752 mm Hg 64%
07:00 +14°C° 0 mm 3 m/s 752 mm Hg 60%
08:00 +16°C° 0 mm 3 m/s 752 mm Hg 57%
09:00 +17°C° 0 mm 3 m/s 752 mm Hg 53%
10:00 +19°C° 0 mm 3 m/s 752 mm Hg 49%
11:00 +21°C° 0 mm 3 m/s 752 mm Hg 45%
12:00 +24°C° 0 mm 3 m/s 752 mm Hg 41%
13:00 +24°C° 0 mm 3 m/s 752 mm Hg 39%
14:00 +25°C° 0 mm 3 m/s 752 mm Hg 37%
15:00 +26°C° 0 mm 2 m/s 752 mm Hg 35%
16:00 +25°C° 0 mm 2 m/s 752 mm Hg 38%
17:00 +24°C° 0 mm 2 m/s 751 mm Hg 41%
18:00 +23°C° 0 mm 1 m/s 751 mm Hg 43%
19:00 +22°C° 0 mm 1 m/s 752 mm Hg 46%
20:00 +21°C° 0 mm 1 m/s 752 mm Hg 49%
21:00 +20°C° 0 mm 1 m/s 752 mm Hg 53%
22:00 +18°C° 0 mm 2 m/s 752 mm Hg 54%
23:00 +18°C° 0 mm 2 m/s 752 mm Hg 56%

5 Ottobre, Lunedi

Tempo Temperatura Precipitazioni Vento Pressione Umidità
00:00 +17°C° 0 mm 3 m/s 752 mm Hg 58%
01:00 +17°C° 0 mm 3 m/s 752 mm Hg 59%
02:00 +16°C° 0 mm 3 m/s 751 mm Hg 60%
03:00 +16°C° 0 mm 3 m/s 751 mm Hg 61%
04:00 +16°C° 0 mm 3 m/s 752 mm Hg 59%
05:00 +14°C° 0 mm 3 m/s 752 mm Hg 57%
06:00 +14°C° 0 mm 3 m/s 752 mm Hg 55%
07:00 +16°C° 0 mm 3 m/s 752 mm Hg 49%
08:00 +18°C° 0 mm 3 m/s 752 mm Hg 44%
09:00 +19°C° 0 mm 4 m/s 752 mm Hg 38%
10:00 +21°C° 0 mm 4 m/s 752 mm Hg 36%
11:00 +22°C° 0 mm 4 m/s 752 mm Hg 34%
12:00 +25°C° 0 mm 5 m/s 752 mm Hg 32%
13:00 +26°C° 0 mm 5 m/s 752 mm Hg 31%
14:00 +26°C° 0 mm 4 m/s 752 mm Hg 31%
15:00 +27°C° 0 mm 4 m/s 752 mm Hg 30%
16:00 +25°C° 0 mm 4 m/s 751 mm Hg 33%
17:00 +24°C° 0 mm 3 m/s 751 mm Hg 36%
18:00 +22°C° 0 mm 3 m/s 751 mm Hg 39%
19:00 +21°C° 0 mm 3 m/s 751 mm Hg 40%
20:00 +20°C° 0 mm 4 m/s 751 mm Hg 41%
21:00 +19°C° 0 mm 4 m/s 751 mm Hg 42%
22:00 +19°C° 0 mm 4 m/s 751 mm Hg 41%
23:00 +18°C° 0 mm 4 m/s 751 mm Hg 40%
Mostrare altro